Time,TemperatureF,DewpointF,PressureIn,WindDirection,WindDirectionDegrees,WindSpeedMPH,WindSpeedGustMPH,Humidity,HourlyPrecipIn,Conditions,Clouds,dailyrainin,SoftwareType,DateUTC
2013-04-04 00:00:00,75.8,75.8,29.95,ESE,119,6.0,11.0,100,0.00,,,0.00,Wunderground v.1.15,2013-04-04 04:00:00,
2013-04-04 00:05:00,75.8,75.8,29.95,ESE,119,5.0,13.0,100,0.00,,,0.00,Wunderground v.1.15,2013-04-04 04:05:00,
2013-04-04 00:10:00,75.8,75.8,29.95,SE,127,4.0,11.0,100,0.00,,,0.00,Wunderground v.1.15,2013-04-04 04:10:00,
2013-04-04 00:15:00,75.8,75.8,29.95,ESE,107,6.0,11.0,100,0.00,,,0.00,Wunderground v.1.15,2013-04-04 04:15:00,
2013-04-04 00:20:00,75.8,75.8,29.95,ESE,107,6.0,6.0,100,0.00,,,0.00,Wunderground v.1.15,2013-04-04 04:20:00,
2013-04-04 00:30:00,75.8,75.8,29.95,ESE,116,6.0,11.0,100,0.00,,,0.00,Wunderground v.1.15,2013-04-04 04:30:00,
2013-04-04 00:35:00,76.0,76.0,29.95,ESE,114,6.0,12.0,100,0.00,,,0.00,Wunderground v.1.15,2013-04-04 04:35:00,
2013-04-04 00:45:00,76.0,76.0,29.95,ESE,109,6.0,12.0,100,0.00,,,0.00,Wunderground v.1.15,2013-04-04 04:45:00,
2013-04-04 00:50:00,75.8,75.8,29.95,ESE,107,7.0,7.0,100,0.00,,,0.00,Wunderground v.1.15,2013-04-04 04:50:00,
2013-04-04 00:55:00,75.8,75.8,29.95,ESE,119,6.0,13.0,100,0.00,,,0.00,Wunderground v.1.15,2013-04-04 04:55:00,
2013-04-04 01:00:00,76.0,76.0,29.95,ESE,103,6.0,6.0,100,0.00,,,0.00,Wunderground v.1.15,2013-04-04 05:00:00,
2013-04-04 01:05:00,76.0,76.0,29.95,ESE,117,4.0,12.0,100,0.00,,,0.00,Wunderground v.1.15,2013-04-04 05:05:00,
2013-04-04 01:15:00,75.8,75.8,29.95,ESE,107,4.0,10.0,100,0.00,,,0.00,Wunderground v.1.15,2013-04-04 05:15:00,
2013-04-04 01:20:00,75.8,75.8,29.95,ESE,104,6.0,12.0,100,0.00,,,0.00,Wunderground v.1.15,2013-04-04 05:20:00,
2013-04-04 01:30:00,75.8,75.8,29.95,ESE,114,6.0,13.0,100,0.00,,,0.00,Wunderground v.1.15,2013-04-04 05:30:00,
2013-04-04 01:35:00,75.8,75.8,29.95,ESE,116,7.0,13.0,100,0.00,,,0.00,Wunderground v.1.15,2013-04-04 05:35:00,
2013-04-04 01:40:00,75.8,75.8,29.95,ESE,113,8.0,8.0,100,0.00,,,0.00,Wunderground v.1.15,2013-04-04 05:40:00,
2013-04-04 01:50:00,75.8,75.8,29.95,ESE,113,5.0,5.0,100,0.00,,,0.00,Wunderground v.1.15,2013-04-04 05:50:00,
2013-04-04 01:55:00,75.8,75.8,29.95,ESE,103,6.0,7.0,100,0.00,,,0.00,Wunderground v.1.15,2013-04-04 05:55:00,
2013-04-04 02:00:00,75.8,75.8,29.94,SE,124,7.0,7.0,100,0.00,,,0.00,Wunderground v.1.15,2013-04-04 06:00:00,
2013-04-04 02:10:00,75.8,75.8,29.94,ESE,112,6.0,12.0,100,0.00,,,0.00,Wunderground v.1.15,2013-04-04 06:10:00,
2013-04-04 02:15:00,75.8,75.8,29.94,ESE,113,7.0,12.0,100,0.00,,,0.00,Wunderground v.1.15,2013-04-04 06:15:00,
2013-04-04 02:20:00,75.8,75.8,29.94,ESE,110,7.0,13.0,100,0.00,,,0.00,Wunderground v.1.15,2013-04-04 06:20:00,
2013-04-04 02:30:00,75.8,75.8,29.94,ESE,113,7.0,7.0,100,0.00,,,0.00,Wunderground v.1.15,2013-04-04 06:30:00,
2013-04-04 02:40:00,75.8,75.8,29.94,ESE,119,6.0,11.0,100,0.00,,,0.00,Wunderground v.1.15,2013-04-04 06:40:00,
2013-04-04 02:45:00,75.6,75.6,29.93,ESE,106,7.0,12.0,100,0.00,,,0.00,Wunderground v.1.15,2013-04-04 06:45:00,
2013-04-04 02:55:00,75.6,75.6,29.93,SE,130,6.0,14.0,100,0.00,,,0.00,Wunderground v.1.15,2013-04-04 06:55:00,
2013-04-04 03:00:00,75.6,75.6,29.92,ESE,116,6.0,6.0,100,0.00,,,0.00,Wunderground v.1.15,2013-04-04 07:00:00,
2013-04-04 03:05:00,75.6,75.6,29.92,ESE,116,6.0,7.0,100,0.00,,,0.00,Wunderground v.1.15,2013-04-04 07:05:00,
2013-04-04 03:10:00,75.6,75.6,29.92,ESE,112,7.0,11.0,100,0.00,,,0.00,Wunderground v.1.15,2013-04-04 07:10:00,
2013-04-04 03:15:00,75.6,75.6,29.92,ESE,116,7.0,13.0,100,0.00,,,0.00,Wunderground v.1.15,2013-04-04 07:15:00,
2013-04-04 03:35:00,75.6,75.6,29.91,ESE,110,7.0,13.0,100,0.00,,,0.00,Wunderground v.1.15,2013-04-04 07:35:00,
2013-04-04 03:40:00,75.6,75.6,29.91,ESE,113,8.0,8.0,100,0.00,,,0.00,Wunderground v.1.15,2013-04-04 07:40:00,
2013-04-04 03:50:00,75.6,75.6,29.91,ESE,112,8.0,13.0,100,0.00,,,0.00,Wunderground v.1.15,2013-04-04 07:50:00,
2013-04-04 03:55:00,75.6,75.6,29.91,ESE,110,8.0,13.0,100,0.00,,,0.00,Wunderground v.1.15,2013-04-04 07:55:00,
2013-04-04 04:00:00,75.6,75.6,29.90,ESE,121,7.0,13.0,100,0.00,,,0.00,Wunderground v.1.15,2013-04-04 08:00:00,
2013-04-04 04:10:00,75.6,75.6,29.90,ESE,117,9.0,9.0,100,0.00,,,0.00,Wunderground v.1.15,2013-04-04 08:10:00,
2013-04-04 04:15:00,75.6,75.6,29.89,ESE,117,8.0,11.0,100,0.00,,,0.00,Wunderground v.1.15,2013-04-04 08:15:00,
2013-04-04 04:25:00,75.4,75.4,29.89,East,92,7.0,13.0,100,0.00,,,0.00,Wunderground v.1.15,2013-04-04 08:25:00,
2013-04-04 04:30:00,75.4,75.4,29.89,SE,143,6.0,6.0,100,0.00,,,0.00,Wunderground v.1.15,2013-04-04 08:30:00,
2013-04-04 04:35:00,75.4,75.4,29.89,ESE,106,5.0,12.0,100,0.00,,,0.00,Wunderground v.1.15,2013-04-04 08:35:00,
2013-04-04 04:40:00,75.4,75.4,29.89,ESE,114,5.0,11.0,100,0.00,,,0.00,Wunderground v.1.15,2013-04-04 08:40:00,
2013-04-04 04:45:00,75.4,75.4,29.89,ESE,120,6.0,12.0,100,0.00,,,0.00,Wunderground v.1.15,2013-04-04 08:45:00,
2013-04-04 04:50:00,75.4,75.4,29.89,ESE,112,7.0,7.0,100,0.00,,,0.00,Wunderground v.1.15,2013-04-04 08:50:00,
2013-04-04 04:55:00,75.4,75.4,29.89,SE,133,7.0,12.0,100,0.00,,,0.00,Wunderground v.1.15,2013-04-04 08:55:00,
2013-04-04 05:05:00,75.4,75.4,29.89,SE,131,5.0,11.0,100,0.00,,,0.00,Wunderground v.1.15,2013-04-04 09:05:00,
2013-04-04 05:15:00,75.4,75.4,29.90,East,93,6.0,11.0,100,0.00,,,0.00,Wunderground v.1.15,2013-04-04 09:15:00,
2013-04-04 05:20:00,75.6,75.6,29.90,SE,131,7.0,13.0,100,0.00,,,0.00,Wunderground v.1.15,2013-04-04 09:20:00,
2013-04-04 05:30:00,75.6,75.6,29.90,ESE,116,6.0,6.0,100,0.00,,,0.00,Wunderground v.1.15,2013-04-04 09:30:00,
2013-04-04 05:35:00,75.6,75.6,29.90,ESE,112,6.0,12.0,100,0.00,,,0.00,Wunderground v.1.15,2013-04-04 09:35:00,
2013-04-04 05:45:00,75.6,75.6,29.90,ESE,120,5.0,12.0,100,0.00,,,0.00,Wunderground v.1.15,2013-04-04 09:45:00,
2013-04-04 05:50:00,75.6,75.6,29.90,ESE,116,6.0,6.0,100,0.00,,,0.00,Wunderground v.1.15,2013-04-04 09:50:00,
2013-04-04 06:00:00,75.4,75.4,29.90,SE,126,5.0,5.0,100,0.00,,,0.00,Wunderground v.1.15,2013-04-04 10:00:00,
2013-04-04 06:10:00,75.4,75.4,29.90,ESE,106,6.0,6.0,100,0.00,,,0.00,Wunderground v.1.15,2013-04-04 10:10:00,
2013-04-04 06:15:00,75.4,75.4,29.91,SE,127,6.0,11.0,100,0.00,,,0.00,Wunderground v.1.15,2013-04-04 10:15:00,
2013-04-04 06:20:00,75.4,75.4,29.91,ESE,112,6.0,6.0,100,0.00,,,0.00,Wunderground v.1.15,2013-04-04 10:20:00,
2013-04-04 06:25:00,75.6,75.6,29.91,SE,131,5.0,8.0,100,0.00,,,0.00,Wunderground v.1.15,2013-04-04 10:25:00,
2013-04-04 06:30:00,75.6,75.6,29.91,SE,127,6.0,6.0,100,0.00,,,0.00,Wunderground v.1.15,2013-04-04 10:30:00,
2013-04-04 06:40:00,75.6,75.6,29.91,ESE,123,7.0,13.0,100,0.00,,,0.00,Wunderground v.1.15,2013-04-04 10:40:00,
2013-04-04 06:45:00,75.6,75.6,29.91,ESE,107,6.0,13.0,100,0.00,,,0.00,Wunderground v.1.15,2013-04-04 10:45:00,
2013-04-04 06:55:00,75.6,75.6,29.91,SE,145,6.0,9.0,100,0.00,,,0.00,Wunderground v.1.15,2013-04-04 10:55:00,
2013-04-04 07:00:00,75.6,75.6,29.92,ESE,120,5.0,11.0,100,0.00,,,0.00,Wunderground v.1.15,2013-04-04 11:00:00,
2013-04-04 07:05:00,75.6,75.6,29.92,East,93,5.0,12.0,100,0.00,,,0.00,Wunderground v.1.15,2013-04-04 11:05:00,
2013-04-04 07:15:00,75.6,75.6,29.92,ESE,113,3.0,10.0,100,0.00,,,0.00,Wunderground v.1.15,2013-04-04 11:15:00,
2013-04-04 07:25:00,75.6,75.6,29.92,ESE,119,4.0,7.0,100,0.00,,,0.00,Wunderground v.1.15,2013-04-04 11:25:00,
2013-04-04 07:30:00,75.6,75.6,29.92,SE,124,5.0,8.0,100,0.00,,,0.00,Wunderground v.1.15,2013-04-04 11:30:00,
2013-04-04 07:35:00,75.6,75.6,29.92,ESE,123,6.0,11.0,100,0.00,,,0.00,Wunderground v.1.15,2013-04-04 11:35:00,
2013-04-04 07:45:00,75.8,75.8,29.92,ESE,117,4.0,11.0,100,0.00,,,0.00,Wunderground v.1.15,2013-04-04 11:45:00,
2013-04-04 07:55:00,76.0,76.0,29.92,ESE,103,3.0,8.0,100,0.00,,,0.00,Wunderground v.1.15,2013-04-04 11:55:00,
2013-04-04 08:05:00,76.3,76.3,29.92,ESE,107,2.0,12.0,100,0.00,,,0.00,Wunderground v.1.15,2013-04-04 12:05:00,
2013-04-04 08:10:00,76.3,76.3,29.92,ESE,106,4.0,10.0,100,0.00,,,0.00,Wunderground v.1.15,2013-04-04 12:10:00,
2013-04-04 08:15:00,76.3,76.3,29.92,ESE,113,5.0,11.0,100,0.00,,,0.00,Wunderground v.1.15,2013-04-04 12:15:00,
2013-04-04 08:20:00,76.5,76.5,29.92,ESE,114,5.0,5.0,100,0.00,,,0.00,Wunderground v.1.15,2013-04-04 12:20:00,
2013-04-04 08:25:00,76.5,76.5,29.92,ESE,116,5.0,8.0,100,0.00,,,0.00,Wunderground v.1.15,2013-04-04 12:25:00,
2013-04-04 08:30:00,76.7,76.7,29.92,ESE,116,6.0,6.0,100,0.00,,,0.00,Wunderground v.1.15,2013-04-04 12:30:00,
2013-04-04 08:40:00,76.8,76.8,29.92,SSE,150,5.0,11.0,100,0.00,,,0.00,Wunderground v.1.15,2013-04-04 12:40:00,
2013-04-04 08:45:00,77.0,77.0,29.92,SE,137,4.0,11.0,100,0.00,,,0.00,Wunderground v.1.15,2013-04-04 12:45:00,
2013-04-04 08:50:00,77.0,77.0,29.92,ESE,116,4.0,10.0,100,0.00,,,0.00,Wunderground v.1.15,2013-04-04 12:50:00,
2013-04-04 09:00:00,77.0,77.0,29.92,SE,130,6.0,11.0,100,0.00,,,0.00,Wunderground v.1.15,2013-04-04 13:00:00,
2013-04-04 09:05:00,77.2,77.2,29.92,ESE,119,7.0,12.0,100,0.00,,,0.00,Wunderground v.1.15,2013-04-04 13:05:00,
2013-04-04 09:15:00,77.2,77.2,29.92,ESE,121,6.0,13.0,100,0.00,,,0.00,Wunderground v.1.15,2013-04-04 13:15:00,
2013-04-04 09:20:00,77.2,77.2,29.92,SE,138,6.0,6.0,100,0.00,,,0.00,Wunderground v.1.15,2013-04-04 13:20:00,
2013-04-04 09:25:00,77.2,77.2,29.92,ESE,103,6.0,8.0,100,0.00,,,0.00,Wunderground v.1.15,2013-04-04 13:25:00,
2013-04-04 09:35:00,77.6,77.6,29.92,SE,130,7.0,14.0,100,0.00,,,0.00,Wunderground v.1.15,2013-04-04 13:35:00,
2013-04-04 09:45:00,77.6,77.6,29.92,SE,136,8.0,10.0,100,0.00,,,0.00,Wunderground v.1.15,2013-04-04 13:45:00,
2013-04-04 09:50:00,77.7,77.7,29.92,SE,128,8.0,12.0,100,0.00,,,0.00,Wunderground v.1.15,2013-04-04 13:50:00,
2013-04-04 09:55:00,77.9,77.9,29.92,SE,143,8.0,14.0,100,0.00,,,0.00,Wunderground v.1.15,2013-04-04 13:55:00,
2013-04-04 10:00:00,77.9,77.9,29.92,SE,133,8.0,8.0,100,0.00,,,0.00,Wunderground v.1.15,2013-04-04 14:00:00,
2013-04-04 10:05:00,78.1,78.1,29.92,ESE,123,6.0,16.0,100,0.00,,,0.00,Wunderground v.1.15,2013-04-04 14:05:00,
2013-04-04 10:10:00,78.3,78.3,29.92,SE,141,6.0,13.0,100,0.00,,,0.00,Wunderground v.1.15,2013-04-04 14:10:00,
2013-04-04 10:15:00,78.3,78.3,29.92,ESE,121,7.0,13.0,100,0.00,,,0.00,Wunderground v.1.15,2013-04-04 14:15:00,
2013-04-04 10:20:00,78.1,78.1,29.92,SE,127,8.0,8.0,100,0.00,,,0.00,Wunderground v.1.15,2013-04-04 14:20:00,
2013-04-04 10:25:00,78.1,78.1,29.92,ESE,123,8.0,14.0,100,0.00,,,0.00,Wunderground v.1.15,2013-04-04 14:25:00,
2013-04-04 10:30:00,78.3,78.3,29.92,SE,130,8.0,8.0,100,0.00,,,0.00,Wunderground v.1.15,2013-04-04 14:30:00,
2013-04-04 10:35:00,78.1,78.1,29.92,SE,133,8.0,13.0,100,0.00,,,0.00,Wunderground v.1.15,2013-04-04 14:35:00,
2013-04-04 10:45:00,78.6,78.6,29.92,ESE,107,7.0,12.0,100,0.00,,,0.00,Wunderground v.1.15,2013-04-04 14:45:00,
2013-04-04 10:50:00,78.6,78.6,29.92,SSE,148,7.0,7.0,100,0.00,,,0.00,Wunderground v.1.15,2013-04-04 14:50:00,
2013-04-04 10:55:00,78.6,78.6,29.92,SE,127,7.0,12.0,100,0.00,,,0.00,Wunderground v.1.15,2013-04-04 14:55:00,
2013-04-04 11:05:00,78.5,78.5,29.91,ESE,116,7.0,13.0,100,0.00,,,0.00,Wunderground v.1.15,2013-04-04 15:05:00,
2013-04-04 11:20:00,78.6,78.6,29.92,East,90,7.0,14.0,100,0.00,,,0.00,Wunderground v.1.15,2013-04-04 15:20:00,
2013-04-04 11:30:00,78.6,78.6,29.92,ESE,107,7.0,7.0,100,0.00,,,0.00,Wunderground v.1.15,2013-04-04 15:30:00,
2013-04-04 11:35:00,78.5,78.5,29.92,SE,144,7.0,10.0,100,0.00,,,0.00,Wunderground v.1.15,2013-04-04 15:35:00,
2013-04-04 11:40:00,78.5,78.5,29.92,SE,131,7.0,12.0,100,0.00,,,0.00,Wunderground v.1.15,2013-04-04 15:40:00,
2013-04-04 11:50:00,79.0,79.0,29.92,SSE,148,7.0,12.0,100,0.00,,,0.00,Wunderground v.1.15,2013-04-04 15:50:00,
2013-04-04 11:55:00,79.0,79.0,29.92,SE,131,7.0,12.0,100,0.00,,,0.00,Wunderground v.1.15,2013-04-04 15:55:00,
2013-04-04 12:00:00,78.6,78.6,29.92,ESE,103,7.0,7.0,100,0.00,,,0.00,Wunderground v.1.15,2013-04-04 16:00:00,
2013-04-04 12:05:00,78.8,78.8,29.92,ESE,119,7.0,9.0,100,0.00,,,0.00,Wunderground v.1.15,2013-04-04 16:05:00,
2013-04-04 12:10:00,79.2,79.2,29.92,SE,127,6.0,6.0,100,0.00,,,0.00,Wunderground v.1.15,2013-04-04 16:10:00,
2013-04-04 12:20:00,79.8,79.8,29.92,SSE,161,5.0,9.0,100,0.00,,,0.00,Wunderground v.1.15,2013-04-04 16:20:00,
2013-04-04 12:25:00,79.6,79.6,29.92,SE,126,5.0,9.0,100,0.00,,,0.00,Wunderground v.1.15,2013-04-04 16:25:00,
2013-04-04 12:30:00,79.4,79.4,29.92,SE,126,5.0,8.0,100,0.00,,,0.00,Wunderground v.1.15,2013-04-04 16:30:00,
2013-04-04 12:35:00,79.8,79.8,29.92,ESE,120,4.0,9.0,100,0.00,,,0.00,Wunderground v.1.15,2013-04-04 16:35:00,
2013-04-04 12:40:00,79.8,79.8,29.92,ESE,123,4.0,8.0,100,0.00,,,0.00,Wunderground v.1.15,2013-04-04 16:40:00,
2013-04-04 12:45:00,79.4,79.4,29.92,ESE,120,5.0,10.0,100,0.00,,,0.00,Wunderground v.1.15,2013-04-04 16:45:00,
2013-04-04 12:50:00,78.6,78.6,29.92,SE,138,7.0,11.0,100,0.00,,,0.00,Wunderground v.1.15,2013-04-04 16:50:00,
2013-04-04 12:55:00,78.8,78.8,29.92,ESE,116,7.0,11.0,100,0.00,,,0.00,Wunderground v.1.15,2013-04-04 16:55:00,
2013-04-04 13:05:00,79.4,79.4,29.91,SE,126,5.0,10.0,100,0.00,,,0.00,Wunderground v.1.15,2013-04-04 17:05:00,
2013-04-04 13:10:00,79.6,79.6,29.91,SE,127,5.0,11.0,100,0.00,,,0.00,Wunderground v.1.15,2013-04-04 17:10:00,
2013-04-04 13:20:00,79.6,79.6,29.90,South,176,7.0,12.0,100,0.00,,,0.00,Wunderground v.1.15,2013-04-04 17:20:00,
2013-04-04 13:25:00,79.9,79.9,29.90,ESE,119,7.0,12.0,100,0.00,,,0.00,Wunderground v.1.15,2013-04-04 17:25:00,
2013-04-04 13:35:00,80.3,80.3,29.90,SSE,158,6.0,12.0,100,0.00,,,0.00,Wunderground v.1.15,2013-04-04 17:35:00,
2013-04-04 13:40:00,80.1,80.1,29.90,SSE,160,6.0,11.0,100,0.00,,,0.00,Wunderground v.1.15,2013-04-04 17:40:00,
2013-04-04 13:45:00,80.5,80.5,29.89,SSE,157,6.0,14.0,100,0.00,,,0.00,Wunderground v.1.15,2013-04-04 17:45:00,
2013-04-04 13:55:00,80.7,80.7,29.89,ESE,120,6.0,13.0,100,0.00,,,0.00,Wunderground v.1.15,2013-04-04 17:55:00,
2013-04-04 14:00:00,80.3,80.3,29.90,SE,141,6.0,13.0,100,0.00,,,0.00,Wunderground v.1.15,2013-04-04 18:00:00,
2013-04-04 14:05:00,80.5,80.5,29.90,ESE,106,6.0,13.0,100,0.00,,,0.00,Wunderground v.1.15,2013-04-04 18:05:00,
2013-04-04 14:10:00,80.9,80.9,29.90,SSE,151,5.0,11.0,100,0.00,,,0.00,Wunderground v.1.15,2013-04-04 18:10:00,
2013-04-04 14:15:00,80.9,80.9,29.90,South,169,5.0,11.0,100,0.00,,,0.00,Wunderground v.1.15,2013-04-04 18:15:00,
2013-04-04 14:25:00,80.9,80.9,29.90,SSE,154,6.0,12.0,100,0.00,,,0.00,Wunderground v.1.15,2013-04-04 18:25:00,
2013-04-04 14:30:00,80.5,80.5,29.90,SSE,165,6.0,12.0,100,0.00,,,0.00,Wunderground v.1.15,2013-04-04 18:30:00,
2013-04-04 14:35:00,80.7,80.7,29.90,SSE,161,6.0,12.0,100,0.00,,,0.00,Wunderground v.1.15,2013-04-04 18:35:00,
2013-04-04 14:40:00,80.1,80.1,29.90,ESE,119,6.0,11.0,100,0.00,,,0.00,Wunderground v.1.15,2013-04-04 18:40:00,
2013-04-04 14:50:00,81.1,81.1,29.90,South,171,5.0,5.0,100,0.00,,,0.00,Wunderground v.1.15,2013-04-04 18:50:00,
2013-04-04 14:55:00,81.1,81.1,29.90,SE,126,4.0,8.0,100,0.00,,,0.00,Wunderground v.1.15,2013-04-04 18:55:00,
2013-04-04 15:00:00,80.9,80.9,29.90,SE,145,5.0,5.0,100,0.00,,,0.00,Wunderground v.1.15,2013-04-04 19:00:00,
2013-04-04 15:05:00,80.5,80.5,29.90,SSE,158,6.0,6.0,100,0.00,,,0.00,Wunderground v.1.15,2013-04-04 19:05:00,
2013-04-04 15:15:00,79.8,79.8,29.89,SSE,157,6.0,6.0,100,0.00,,,0.00,Wunderground v.1.15,2013-04-04 19:15:00,
2013-04-04 15:20:00,80.3,80.3,29.89,South,176,6.0,13.0,100,0.00,,,0.00,Wunderground v.1.15,2013-04-04 19:20:00,
2013-04-04 15:25:00,80.3,80.3,29.89,SSE,161,5.0,13.0,100,0.00,,,0.00,Wunderground v.1.15,2013-04-04 19:25:00,
2013-04-04 15:35:00,80.7,80.7,29.89,SSE,150,5.0,13.0,100,0.00,,,0.00,Wunderground v.1.15,2013-04-04 19:35:00,
2013-04-04 15:40:00,80.1,80.1,29.89,SSE,157,5.0,5.0,100,0.00,,,0.00,Wunderground v.1.15,2013-04-04 19:40:00,
2013-04-04 15:50:00,80.3,80.3,29.89,SE,141,4.0,4.0,100,0.00,,,0.00,Wunderground v.1.15,2013-04-04 19:50:00,
2013-04-04 16:00:00,80.5,80.5,29.89,ESE,106,4.0,9.0,100,0.00,,,0.00,Wunderground v.1.15,2013-04-04 20:00:00,
2013-04-04 16:05:00,80.3,80.3,29.89,SSE,157,5.0,9.0,100,0.00,,,0.00,Wunderground v.1.15,2013-04-04 20:05:00,
2013-04-04 16:15:00,80.7,80.7,29.88,ESE,121,4.0,12.0,100,0.00,,,0.00,Wunderground v.1.15,2013-04-04 20:15:00,
2013-04-04 16:20:00,80.3,80.3,29.88,SE,141,5.0,8.0,100,0.00,,,0.00,Wunderground v.1.15,2013-04-04 20:20:00,
2013-04-04 16:25:00,80.1,80.1,29.88,SSE,148,5.0,11.0,100,0.00,,,0.00,Wunderground v.1.15,2013-04-04 20:25:00,
2013-04-04 16:30:00,80.1,80.1,29.88,SSE,160,4.0,4.0,100,0.00,,,0.00,Wunderground v.1.15,2013-04-04 20:30:00,
2013-04-04 16:35:00,80.1,80.1,29.88,ESE,121,4.0,10.0,100,0.00,,,0.00,Wunderground v.1.15,2013-04-04 20:35:00,
2013-04-04 16:40:00,79.9,79.9,29.88,ESE,107,4.0,4.0,100,0.00,,,0.00,Wunderground v.1.15,2013-04-04 20:40:00,
2013-04-04 16:50:00,79.4,79.4,29.88,SSE,151,4.0,4.0,100,0.00,,,0.00,Wunderground v.1.15,2013-04-04 20:50:00,
2013-04-04 16:55:00,79.4,79.4,29.88,SE,137,3.0,8.0,100,0.00,,,0.00,Wunderground v.1.15,2013-04-04 20:55:00,
2013-04-04 17:00:00,79.4,79.4,29.88,SSE,147,3.0,3.0,100,0.00,,,0.00,Wunderground v.1.15,2013-04-04 21:00:00,
2013-04-04 17:05:00,79.4,79.4,29.88,SE,144,3.0,10.0,100,0.00,,,0.00,Wunderground v.1.15,2013-04-04 21:05:00,
2013-04-04 17:10:00,79.6,79.6,29.88,SE,134,3.0,8.0,100,0.00,,,0.00,Wunderground v.1.15,2013-04-04 21:10:00,
2013-04-04 17:15:00,79.4,79.4,29.88,SE,141,3.0,8.0,100,0.00,,,0.00,Wunderground v.1.15,2013-04-04 21:15:00,
2013-04-04 17:20:00,79.8,79.8,29.88,SE,140,3.0,3.0,100,0.00,,,0.00,Wunderground v.1.15,2013-04-04 21:20:00,
2013-04-04 17:25:00,79.6,79.6,29.88,SE,141,3.0,5.0,100,0.00,,,0.00,Wunderground v.1.15,2013-04-04 21:25:00,
2013-04-04 17:30:00,79.2,79.2,29.88,SE,137,4.0,4.0,100,0.00,,,0.00,Wunderground v.1.15,2013-04-04 21:30:00,
2013-04-04 17:40:00,79.0,79.0,29.88,SE,131,2.0,7.0,100,0.00,,,0.00,Wunderground v.1.15,2013-04-04 21:40:00,
2013-04-04 17:45:00,79.2,79.2,29.87,SE,126,3.0,7.0,100,0.00,,,0.00,Wunderground v.1.15,2013-04-04 21:45:00,
2013-04-04 17:50:00,79.6,79.6,29.87,SE,134,3.0,10.0,100,0.00,,,0.00,Wunderground v.1.15,2013-04-04 21:50:00,
2013-04-04 17:55:00,79.4,79.4,29.87,SE,131,2.0,10.0,100,0.00,,,0.00,Wunderground v.1.15,2013-04-04 21:55:00,
2013-04-04 18:00:00,79.4,79.4,29.88,SE,131,2.0,2.0,100,0.00,,,0.00,Wunderground v.1.15,2013-04-04 22:00:00,
2013-04-04 18:05:00,79.2,79.2,29.88,SE,131,2.0,7.0,100,0.00,,,0.00,Wunderground v.1.15,2013-04-04 22:05:00,
2013-04-04 18:15:00,78.5,78.5,29.87,SE,130,4.0,7.0,100,0.00,,,0.00,Wunderground v.1.15,2013-04-04 22:15:00,
2013-04-04 18:25:00,78.3,78.3,29.87,SE,131,4.0,7.0,100,0.00,,,0.00,Wunderground v.1.15,2013-04-04 22:25:00,
2013-04-04 18:35:00,78.1,78.1,29.87,SE,133,3.0,8.0,100,0.00,,,0.00,Wunderground v.1.15,2013-04-04 22:35:00,
2013-04-04 18:40:00,78.3,78.3,29.87,SE,127,2.0,2.0,100,0.00,,,0.00,Wunderground v.1.15,2013-04-04 22:40:00,
2013-04-04 18:50:00,78.3,78.3,29.87,SE,126,1.0,1.0,100,0.00,,,0.00,Wunderground v.1.15,2013-04-04 22:50:00,
2013-04-04 19:00:00,78.1,78.1,29.87,SE,126,0.0,5.0,100,0.00,,,0.00,Wunderground v.1.15,2013-04-04 23:00:00,
2013-04-04 19:05:00,77.9,77.9,29.87,SE,126,0.0,5.0,100,0.00,,,0.00,Wunderground v.1.15,2013-04-04 23:05:00,
2013-04-04 19:10:00,77.9,77.9,29.87,SE,126,1.0,1.0,100,0.00,,,0.00,Wunderground v.1.15,2013-04-04 23:10:00,
2013-04-04 19:20:00,77.7,77.7,29.87,SE,126,1.0,1.0,100,0.00,,,0.00,Wunderground v.1.15,2013-04-04 23:20:00,
2013-04-04 19:25:00,77.7,77.7,29.87,SE,126,0.0,5.0,100,0.00,,,0.00,Wunderground v.1.15,2013-04-04 23:25:00,
2013-04-04 19:30:00,77.7,77.7,29.87,SE,126,0.0,3.0,100,0.00,,,0.00,Wunderground v.1.15,2013-04-04 23:30:00,
2013-04-04 19:35:00,77.7,77.7,29.87,SE,126,0.0,3.0,100,0.00,,,0.00,Wunderground v.1.15,2013-04-04 23:35:00,
2013-04-04 19:45:00,77.7,77.7,29.87,SE,126,0.0,2.0,100,0.00,,,0.00,Wunderground v.1.15,2013-04-04 23:45:00,
2013-04-04 19:50:00,77.6,77.6,29.87,SE,126,0.0,0.0,100,0.00,,,0.00,Wunderground v.1.15,2013-04-04 23:50:00,
2013-04-04 19:55:00,77.6,77.6,29.87,SE,126,0.0,0.0,100,0.00,,,0.00,Wunderground v.1.15,2013-04-04 23:55:00,
2013-04-04 20:00:00,77.4,77.4,29.87,SE,126,0.0,3.0,100,0.00,,,0.00,Wunderground v.1.15,2013-04-05 00:00:00,
2013-04-04 20:10:00,77.4,77.4,29.87,ESE,121,2.0,2.0,100,0.00,,,0.00,Wunderground v.1.15,2013-04-05 00:10:00,
2013-04-04 20:20:00,77.4,77.4,29.86,ESE,114,1.0,1.0,100,0.00,,,0.00,Wunderground v.1.15,2013-04-05 00:20:00,
2013-04-04 20:25:00,77.2,77.2,29.86,ESE,114,1.0,6.0,100,0.00,,,0.00,Wunderground v.1.15,2013-04-05 00:25:00,
2013-04-04 20:30:00,77.2,77.2,29.86,ESE,114,1.0,5.0,100,0.00,,,0.00,Wunderground v.1.15,2013-04-05 00:30:00,
2013-04-04 20:40:00,77.2,77.2,29.86,ESE,113,1.0,8.0,100,0.00,,,0.00,Wunderground v.1.15,2013-04-05 00:40:00,
2013-04-04 20:45:00,77.2,77.2,29.86,ESE,112,2.0,8.0,100,0.00,,,0.00,Wunderground v.1.15,2013-04-05 00:45:00,
2013-04-04 20:50:00,77.2,77.2,29.86,ESE,114,4.0,7.0,100,0.00,,,0.00,Wunderground v.1.15,2013-04-05 00:50:00,
2013-04-04 21:00:00,77.0,77.0,29.84,SE,126,5.0,11.0,100,0.00,,,0.00,Wunderground v.1.15,2013-04-05 01:00:00,
2013-04-04 21:05:00,77.0,77.0,29.84,ESE,120,5.0,11.0,100,0.00,,,0.00,Wunderground v.1.15,2013-04-05 01:05:00,
2013-04-04 21:15:00,77.0,77.0,29.85,ESE,119,4.0,10.0,100,0.00,,,0.00,Wunderground v.1.15,2013-04-05 01:15:00,
2013-04-04 21:25:00,77.0,77.0,29.85,SE,128,4.0,11.0,100,0.00,,,0.00,Wunderground v.1.15,2013-04-05 01:25:00,
2013-04-04 21:35:00,77.0,77.0,29.85,ESE,103,4.0,10.0,100,0.00,,,0.00,Wunderground v.1.15,2013-04-05 01:35:00,
2013-04-04 21:40:00,77.0,77.0,29.85,ESE,117,3.0,8.0,100,0.00,,,0.00,Wunderground v.1.15,2013-04-05 01:40:00,
2013-04-04 21:45:00,77.0,77.0,29.84,ESE,110,4.0,10.0,100,0.00,,,0.00,Wunderground v.1.15,2013-04-05 01:45:00,
2013-04-04 21:50:00,77.0,77.0,29.84,ESE,121,4.0,8.0,100,0.00,,,0.00,Wunderground v.1.15,2013-04-05 01:50:00,
2013-04-04 22:00:00,76.8,76.8,29.85,ESE,116,6.0,6.0,100,0.00,,,0.00,Wunderground v.1.15,2013-04-05 02:00:00,
2013-04-04 22:05:00,76.5,76.5,29.85,SE,127,5.0,10.0,100,0.00,,,0.00,Wunderground v.1.15,2013-04-05 02:05:00,
2013-04-04 22:10:00,76.5,76.5,29.85,ESE,114,5.0,5.0,100,0.00,,,0.00,Wunderground v.1.15,2013-04-05 02:10:00,
2013-04-04 22:15:00,76.5,76.5,29.86,ESE,120,5.0,11.0,100,0.00,,,0.00,Wunderground v.1.15,2013-04-05 02:15:00,
2013-04-04 22:20:00,76.3,76.3,29.86,SE,126,4.0,10.0,100,0.00,,,0.00,Wunderground v.1.15,2013-04-05 02:20:00,
2013-04-04 22:25:00,76.5,76.5,29.86,ESE,116,5.0,10.0,100,0.00,,,0.00,Wunderground v.1.15,2013-04-05 02:25:00,
2013-04-04 22:30:00,76.7,76.7,29.87,SSE,148,4.0,4.0,100,0.00,,,0.00,Wunderground v.1.15,2013-04-05 02:30:00,
2013-04-04 22:40:00,76.8,76.8,29.87,ESE,123,4.0,4.0,100,0.00,,,0.00,Wunderground v.1.15,2013-04-05 02:40:00,
2013-04-04 22:50:00,77.0,77.0,29.87,SE,126,4.0,4.0,100,0.00,,,0.00,Wunderground v.1.15,2013-04-05 02:50:00,
2013-04-04 23:00:00,77.2,77.2,29.88,SE,131,3.0,8.0,100,0.00,,,0.00,Wunderground v.1.15,2013-04-05 03:00:00,
2013-04-04 23:10:00,77.0,77.0,29.88,ESE,121,4.0,4.0,100,0.00,,,0.00,Wunderground v.1.15,2013-04-05 03:10:00,
2013-04-04 23:15:00,77.2,77.2,29.88,South,181,5.0,10.0,100,0.00,,,0.00,Wunderground v.1.15,2013-04-05 03:15:00,
2013-04-04 23:20:00,77.0,77.0,29.88,SE,126,5.0,5.0,100,0.00,,,0.00,Wunderground v.1.15,2013-04-05 03:20:00,
2013-04-04 23:25:00,77.0,77.0,29.88,SSE,148,6.0,8.0,100,0.00,,,0.00,Wunderground v.1.15,2013-04-05 03:25:00,
2013-04-04 23:35:00,77.2,77.2,29.89,SE,134,5.0,11.0,100,0.00,,,0.00,Wunderground v.1.15,2013-04-05 03:35:00,
2013-04-04 23:40:00,77.2,77.2,29.89,SE,145,5.0,5.0,100,0.00,,,0.00,Wunderground v.1.15,2013-04-05 03:40:00,
2013-04-04 23:45:00,77.0,77.0,29.89,SE,138,4.0,10.0,100,0.00,,,0.00,Wunderground v.1.15,2013-04-05 03:45:00,
2013-04-04 23:50:00,77.0,77.0,29.89,SE,127,5.0,10.0,100,0.00,,,0.00,Wunderground v.1.15,2013-04-05 03:50:00,
2013-04-04 23:55:00,77.2,77.2,29.89,SE,137,5.0,11.0,100,0.00,,,0.00,Wunderground v.1.15,2013-04-05 03:55:00,